Location: Newport
(44.6370°N, 124.0520°W)
Time: 10:09:26
(UTC-08:00)

OTV 5 (USA 277) - Pass Details

Date: 12 October 2017
Orbit: 404 x 417 km, 43.0° (Epoch: 07 September)

Event Time Altitude Azimuth Distance (km) Brightness Sun altitude
Rises 19:43:11 0° 242° (WSW) 2,349 ? -12.7°
Reaches altitude 10° 19:45:21 10° 235° (SW) 1,488 ? -13.1°
Maximum altitude 19:48:32 41° 163° (SSE) 612 ? -13.7°
Enters shadow 19:49:55 26° 110° (ESE) 849 ? -13.9°
